• In Österreich
  • Länderverzeichnis
  • Für 7 Tage
  • Wassertemperatur
  • Satellitenkarten
  • Wetterkarte
  • News
  • Widgets
  • user-avatar
    Anmelden

    Stündliche Wetter Uige

    Heute, 20 September, Donnerstag

    Zeit Temperatur Niederschläge Wind Luftdruck Luftfeuchtigkeit
    00:00 +25°C° 0 mm 1 m/S 691 mmHg 80%
    01:00 +24°C° 0 mm 1 m/S 690 mmHg 82%
    02:00 +24°C° 0 mm 1 m/S 690 mmHg 84%
    03:00 +23°C° 0 mm 1 m/S 690 mmHg 87%
    04:00 +23°C° 0 mm 1 m/S 690 mmHg 89%
    05:00 +23°C° 0 mm 1 m/S 690 mmHg 87%
    06:00 +23°C° 0 mm 1 m/S 690 mmHg 85%
    07:00 +23°C° 0 mm 1 m/S 690 mmHg 84%
    08:00 +27°C° 0 mm 1 m/S 691 mmHg 70%
    09:00 +30°C° 0 mm 1 m/S 692 mmHg 57%
    10:00 +34°C° 0 mm 1 m/S 693 mmHg 44%
    11:00 +35°C° 0 mm 1 m/S 692 mmHg 40%
    12:00 +36°C° 0 mm 1 m/S 691 mmHg 36%
    13:00 +37°C° 0 mm 1 m/S 690 mmHg 31%
    14:00 +36°C° 0 mm 1 m/S 690 mmHg 34%
    15:00 +35°C° 0 mm 1 m/S 689 mmHg 36%
    16:00 +34°C° 0 mm 1 m/S 689 mmHg 38%
    17:00 +32°C° 0.5 mm 1 m/S 689 mmHg 45%
    18:00 +30°C° 0.5 mm 1 m/S 689 mmHg 52%
    19:00 +29°C° 0.5 mm 1 m/S 689 mmHg 59%
    20:00 +28°C° 0.7 mm 1 m/S 690 mmHg 64%
    21:00 +27°C° 0.7 mm 1 m/S 690 mmHg 68%
    22:00 +25°C° 0.7 mm 1 m/S 691 mmHg 73%
    23:00 +25°C° 0.1 mm 2 m/S 691 mmHg 75%

    Morgen, 21 September, Freitag

    Zeit Temperatur Niederschläge Wind Luftdruck Luftfeuchtigkeit
    00:00 +24°C° 0.1 mm 2 m/S 690 mmHg 77%
    01:00 +23°C° 0.1 mm 2 m/S 690 mmHg 79%
    02:00 +23°C° 0 mm 2 m/S 690 mmHg 81%
    03:00 +21°C° 0 mm 2 m/S 690 mmHg 83%
    04:00 +21°C° 0 mm 1 m/S 689 mmHg 85%
    05:00 +22°C° 0 mm 1 m/S 690 mmHg 84%
    06:00 +22°C° 0 mm 1 m/S 690 mmHg 83%
    07:00 +21°C° 0 mm 2 m/S 690 mmHg 82%
    08:00 +25°C° 0 mm 2 m/S 691 mmHg 71%
    09:00 +27°C° 0 mm 2 m/S 692 mmHg 60%
    10:00 +30°C° 0 mm 2 m/S 692 mmHg 49%
    11:00 +32°C° 0 mm 2 m/S 692 mmHg 44%
    12:00 +35°C° 0 mm 2 m/S 691 mmHg 39%
    13:00 +37°C° 0 mm 2 m/S 691 mmHg 34%
    14:00 +36°C° 0 mm 2 m/S 690 mmHg 36%
    15:00 +35°C° 0 mm 2 m/S 689 mmHg 38%
    16:00 +34°C° 0 mm 2 m/S 689 mmHg 40%
    17:00 +31°C° 0 mm 2 m/S 689 mmHg 44%
    18:00 +30°C° 0 mm 2 m/S 689 mmHg 48%
    19:00 +29°C° 0 mm 2 m/S 690 mmHg 52%
    20:00 +28°C° 0 mm 2 m/S 690 mmHg 56%
    21:00 +27°C° 0 mm 2 m/S 691 mmHg 60%
    22:00 +26°C° 0 mm 2 m/S 691 mmHg 65%
    23:00 +25°C° 0 mm 2 m/S 691 mmHg 68%

    übermorgen, 22 September, Samstag

    Zeit Temperatur Niederschläge Wind Luftdruck Luftfeuchtigkeit
    00:00 +24°C° 0 mm 1 m/S 690 mmHg 72%
    01:00 +23°C° 0 mm 1 m/S 690 mmHg 76%
    02:00 +23°C° 0 mm 1 m/S 690 mmHg 78%
    03:00 +22°C° 0 mm 1 m/S 689 mmHg 80%
    04:00 +22°C° 0 mm 1 m/S 689 mmHg 83%
    05:00 +22°C° 0.1 mm 1 m/S 689 mmHg 81%
    06:00 +22°C° 0.1 mm 1 m/S 690 mmHg 79%
    07:00 +22°C° 0.1 mm 1 m/S 690 mmHg 78%
    08:00 +25°C° 0 mm 2 m/S 691 mmHg 66%
    09:00 +28°C° 0 mm 2 m/S 692 mmHg 55%
    10:00 +31°C° 0 mm 2 m/S 692 mmHg 44%
    11:00 +32°C° 0 mm 2 m/S 691 mmHg 40%
    12:00 +35°C° 0 mm 2 m/S 691 mmHg 36%
    13:00 +37°C° 0 mm 2 m/S 690 mmHg 31%
    14:00 +36°C° 0 mm 2 m/S 689 mmHg 33%
    15:00 +35°C° 0 mm 2 m/S 689 mmHg 35%
    16:00 +34°C° 0 mm 2 m/S 689 mmHg 37%
    17:00 +31°C° 0.1 mm 2 m/S 689 mmHg 41%
    18:00 +30°C° 0.1 mm 2 m/S 689 mmHg 46%
    19:00 +29°C° 0.1 mm 2 m/S 690 mmHg 50%
    20:00 +27°C° 0 mm 2 m/S 690 mmHg 56%
    21:00 +26°C° 0 mm 2 m/S 691 mmHg 62%
    22:00 +25°C° 0 mm 2 m/S 691 mmHg 67%
    23:00 +24°C° 0 mm 2 m/S 691 mmHg 71%

    23 September, Sonntag

    Zeit Temperatur Niederschläge Wind Luftdruck Luftfeuchtigkeit
    00:00 +23°C° 0 mm 2 m/S 690 mmHg 74%
    01:00 +23°C° 0 mm 2 m/S 690 mmHg 77%
    02:00 +21°C° 0.1 mm 2 m/S 690 mmHg 80%
    03:00 +22°C° 0.1 mm 1 m/S 690 mmHg 82%
    04:00 +21°C° 0.1 mm 1 m/S 689 mmHg 84%
    05:00 +21°C° 0 mm 1 m/S 690 mmHg 82%
    06:00 +22°C° 0 mm 1 m/S 691 mmHg 81%
    07:00 +21°C° 0 mm 2 m/S 691 mmHg 79%
    08:00 +25°C° 0 mm 2 m/S 692 mmHg 67%
    09:00 +28°C° 0 mm 2 m/S 692 mmHg 54%
    10:00 +30°C° 0 mm 2 m/S 692 mmHg 42%
    11:00 +32°C° 0 mm 2 m/S 692 mmHg 38%
    12:00 +35°C° 0 mm 2 m/S 691 mmHg 34%
    13:00 +36°C° 0 mm 3 m/S 690 mmHg 29%
    14:00 +36°C° 0 mm 2 m/S 690 mmHg 31%
    15:00 +35°C° 0 mm 2 m/S 689 mmHg 32%
    16:00 +34°C° 0 mm 2 m/S 689 mmHg 33%
    17:00 +33°C° 0 mm 3 m/S 689 mmHg 38%
    18:00 +30°C° 0 mm 3 m/S 690 mmHg 42%
    19:00 +29°C° 0 mm 3 m/S 690 mmHg 46%
    20:00 +27°C° 0 mm 3 m/S 690 mmHg 53%
    21:00 +26°C° 0 mm 3 m/S 691 mmHg 59%
    22:00 +25°C° 0 mm 2 m/S 691 mmHg 65%
    23:00 +24°C° 0 mm 2 m/S 691 mmHg 68%

    24 September, Montag

    Zeit Temperatur Niederschläge Wind Luftdruck Luftfeuchtigkeit
    00:00 +23°C° 0 mm 2 m/S 690 mmHg 72%
    01:00 +21°C° 0 mm 2 m/S 690 mmHg 76%
    02:00 +21°C° 0 mm 2 m/S 690 mmHg 78%
    03:00 +20°C° 0 mm 2 m/S 690 mmHg 81%
    04:00 +20°C° 0 mm 2 m/S 690 mmHg 83%
    05:00 +20°C° 0 mm 2 m/S 690 mmHg 82%
    06:00 +20°C° 0 mm 2 m/S 691 mmHg 81%
    07:00 +20°C° 0 mm 2 m/S 692 mmHg 79%
    08:00 +23°C° 0 mm 2 m/S 692 mmHg 70%
    09:00 +26°C° 0 mm 2 m/S 693 mmHg 60%
    10:00 +28°C° 0 mm 2 m/S 693 mmHg 50%
    11:00 +30°C° 0 mm 2 m/S 692 mmHg 45%
    12:00 +31°C° 0 mm 2 m/S 692 mmHg 40%
    13:00 +34°C° 0 mm 2 m/S 691 mmHg 35%
    14:00 +34°C° 0 mm 2 m/S 690 mmHg 36%
    15:00 +32°C° 0 mm 2 m/S 690 mmHg 36%
    16:00 +33°C° 0 mm 3 m/S 689 mmHg 36%
    17:00 +31°C° 0 mm 2 m/S 690 mmHg 41%
    18:00 +29°C° 0 mm 2 m/S 690 mmHg 45%
    19:00 +27°C° 0 mm 2 m/S 690 mmHg 49%
    20:00 +26°C° 0 mm 2 m/S 691 mmHg 55%
    21:00 +25°C° 0 mm 2 m/S 691 mmHg 60%
    22:00 +24°C° 0 mm 3 m/S 691 mmHg 65%
    23:00 +24°C° 0 mm 2 m/S 691 mmHg 70%

    25 September, Dienstag

    Zeit Temperatur Niederschläge Wind Luftdruck Luftfeuchtigkeit
    00:00 +23°C° 0 mm 2 m/S 691 mmHg 75%
    01:00 +21°C° 0 mm 2 m/S 691 mmHg 81%
    02:00 +21°C° 0 mm 2 m/S 690 mmHg 81%
    03:00 +20°C° 0 mm 2 m/S 690 mmHg 82%
    04:00 +20°C° 0 mm 2 m/S 690 mmHg 83%
    05:00 +20°C° 0 mm 2 m/S 691 mmHg 81%
    06:00 +21°C° 0 mm 2 m/S 691 mmHg 79%
    07:00 +22°C° 0 mm 1 m/S 692 mmHg 77%
    08:00 +25°C° 0 mm 1 m/S 692 mmHg 65%
    09:00 +28°C° 0 mm 2 m/S 693 mmHg 53%
    10:00 +31°C° 0 mm 2 m/S 693 mmHg 41%
    11:00 +32°C° 0 mm 2 m/S 693 mmHg 38%
    12:00 +35°C° 0 mm 2 m/S 692 mmHg 34%
    13:00 +37°C° 0 mm 2 m/S 691 mmHg 30%
    14:00 +36°C° 0 mm 2 m/S 690 mmHg 31%
    15:00 +35°C° 0 mm 2 m/S 690 mmHg 33%
    16:00 +34°C° 0 mm 2 m/S 689 mmHg 34%
    17:00 +32°C° 0 mm 2 m/S 690 mmHg 38%
    18:00 +31°C° 0 mm 2 m/S 690 mmHg 41%
    19:00 +29°C° 0 mm 1 m/S 691 mmHg 45%
    20:00 +28°C° 0.1 mm 2 m/S 691 mmHg 50%
    21:00 +27°C° 0.1 mm 2 m/S 691 mmHg 56%
    22:00 +26°C° 0.1 mm 2 m/S 692 mmHg 61%
    23:00 +25°C° 0 mm 2 m/S 691 mmHg 65%
    Mehr zeigen